Aérodrome :
LOGIN :

S'inscrire | Disclaimer

   EN    FR    IT 

 










Légende :    VFR   VFR Marginal   IFR   IFR Intensif   IFR Très Intensif
Visi : 
Plafond : 
>= 8 km
>= 3000ft
5 à 8 km
1000 à 3000 ft
1500m à 5 km
500 à 1000 ft
800 à 1500m
200 à 500 ft
< 800m
< 200 ft
Symboles :   Orages  Brouillard  Fortes neiges  Fortes précipitations  Vent > 20 kt
SIGMETs :   Divers  Orages  Givrage  Turbulence  Onde Orograph.  Cendres Volcan.







- Altitude de l'aérodrome : 37 ft
- Code IATA : HLY


EGOV - RAF Valley

DERNIER METAR :
  • 200650Z 22021KT 9999 BKN008 OVC028 13/12 Q1011 GRN TEMPO FEW008 BLU

METARs EXPIRÉS :
  • 200550Z AUTO 22022KT 8000 BR BKN008/// BKN032/// 13/12 Q1011
  • 200450Z AUTO 22023KT 9000 HZ BKN009/// 13/11 Q1011

TAF TAF EGOV
Valide du 20 à 07h jusqu'au 20 à 15h UTC


200613Z 2007/2015 22022G32KT 9999 SCT008 BKN030
BECMG 2007/2010 FEW008
PROB30
TEMPO 2007/2009 SCT006
BECMG 2010/2013 22018KT
Pas de NOTAMs connus pour ce terrain.



MET'MAP, la Météo Aéronautique d'un coup d'oeil ! - Copyright ORBIFLY Décembre 2007 - Disclaimer

ORBIFLY MET'MAP TEAM :

Programmation & Développement : Alexandra Zaïnal
Conception & Développement : Baudouin d'Aumeries
Co-Programmation & Développement : Marc-Olivier Méhu
Soutien technique & logistique : Manuel Goepfert

Contact : metmap@orbifly.com




SOURCES & CREDITS :

   NOAA